TimeEDT,TemperatureF,Dew PointF,Humidity,Sea Level PressureIn,VisibilityMPH,Wind Direction,Wind SpeedMPH,Gust SpeedMPH,PrecipitationIn,Events,Conditions,WindDirDegrees,DateUTC
12:53 AM,53.1,48.9,86,29.85,10.0,ESE,3.5,-,0.00,,Overcast,120,2012-10-02 04:53:00
1:53 AM,54.0,50.0,86,29.85,10.0,ESE,3.5,-,0.05,,Overcast,120,2012-10-02 05:53:00
2:53 AM,54.0,52.0,93,29.85,4.0,Calm,Calm,-,0.02,Rain,Rain,0,2012-10-02 06:53:00
4:53 AM,55.0,52.0,89,29.83,10.0,East,5.8,-,0.00,,Overcast,80,2012-10-02 08:53:00
5:53 AM,54.0,52.0,93,29.84,5.0,ENE,4.6,-,0.02,Rain,Rain,60,2012-10-02 09:53:00
6:12 AM,53.6,51.8,94,29.84,6.0,ENE,3.5,-,0.01,Rain,Light Rain,60,2012-10-02 10:12:00
6:53 AM,54.0,52.0,93,29.84,6.0,ENE,4.6,-,0.02,,Overcast,60,2012-10-02 10:53:00
7:19 AM,53.6,51.8,94,29.84,5.0,East,4.6,-,0.00,Rain,Light Rain,80,2012-10-02 11:19:00
7:30 AM,53.6,51.8,94,29.84,5.0,ENE,5.8,-,0.00,,Overcast,60,2012-10-02 11:30:00
7:53 AM,55.0,53.1,93,29.86,5.0,Calm,Calm,-,0.00,,Overcast,0,2012-10-02 11:53:00
7:59 AM,53.6,53.6,100,29.86,1.8,ENE,3.5,-,0.06,Rain,Heavy Rain,60,2012-10-02 11:59:00
8:04 AM,53.6,53.6,100,29.86,1.0,East,4.6,-,0.12,Rain,Heavy Rain,90,2012-10-02 12:04:00
8:21 AM,55.4,53.6,94,29.86,1.2,Calm,Calm,-,0.24,Rain,Heavy Rain,0,2012-10-02 12:21:00
8:53 AM,55.0,53.1,93,29.87,1.2,ENE,3.5,-,0.37,Rain,Rain,70,2012-10-02 12:53:00
9:45 AM,55.4,53.6,94,29.88,1.0,East,3.5,-,0.21,Rain,Heavy Rain,80,2012-10-02 13:45:00
9:53 AM,55.9,55.0,97,29.88,1.2,East,5.8,-,0.23,Rain,Rain,100,2012-10-02 13:53:00
10:13 AM,57.2,55.4,94,29.88,1.5,ESE,5.8,-,0.03,Rain,Light Rain,110,2012-10-02 14:13:00
10:33 AM,57.2,55.4,94,29.88,2.0,ESE,4.6,-,0.04,Rain,Light Rain,110,2012-10-02 14:33:00
10:48 AM,57.2,55.4,94,29.88,4.0,ESE,4.6,-,0.04,,Overcast,110,2012-10-02 14:48:00
10:53 AM,57.9,55.9,93,29.88,5.0,East,3.5,-,0.04,,Overcast,100,2012-10-02 14:53:00
11:37 AM,60.8,57.2,88,29.88,6.0,Calm,Calm,-,N/A,,Overcast,0,2012-10-02 15:37:00
11:53 AM,61.0,57.9,90,29.88,5.0,SE,3.5,-,N/A,,Overcast,130,2012-10-02 15:53:00
12:09 PM,60.8,59.0,94,29.88,7.0,ESE,5.8,-,N/A,,Overcast,110,2012-10-02 16:09:00
12:40 PM,62.6,59.0,88,29.88,9.0,SE,5.8,-,N/A,,Overcast,130,2012-10-02 16:40:00
12:46 PM,62.6,60.8,94,29.88,9.0,ESE,5.8,-,N/A,,Overcast,110,2012-10-02 16:46:00
12:53 PM,63.0,60.1,90,29.87,9.0,ESE,5.8,-,N/A,,Overcast,120,2012-10-02 16:53:00
1:53 PM,66.0,62.1,87,29.86,10.0,ESE,3.5,-,N/A,,Overcast,120,2012-10-02 17:53:00
2:22 PM,66.2,62.6,88,29.86,10.0,East,5.8,-,N/A,,Overcast,100,2012-10-02 18:22:00
2:53 PM,66.9,62.1,84,29.85,10.0,ESE,3.5,-,N/A,,Overcast,110,2012-10-02 18:53:00
3:05 PM,66.2,62.6,88,29.85,10.0,East,4.6,-,N/A,,Overcast,100,2012-10-02 19:05:00
3:53 PM,68.0,63.0,84,29.85,10.0,Calm,Calm,-,N/A,,Overcast,0,2012-10-02 19:53:00
4:53 PM,66.9,63.0,87,29.85,10.0,Variable,3.5,-,N/A,,Overcast,0,2012-10-02 20:53:00
5:27 PM,66.2,62.6,88,29.86,10.0,ENE,4.6,-,N/A,,Overcast,70,2012-10-02 21:27:00
5:53 PM,66.9,63.0,87,29.86,10.0,ENE,3.5,-,N/A,,Overcast,60,2012-10-02 21:53:00
6:53 PM,66.0,63.0,90,29.87,9.0,Calm,Calm,-,N/A,,Overcast,0,2012-10-02 22:53:00
7:37 PM,64.4,62.6,94,29.89,8.0,NE,3.5,-,N/A,,Overcast,40,2012-10-02 23:37:00
7:53 PM,64.0,63.0,96,29.88,7.0,NE,3.5,-,N/A,,Overcast,40,2012-10-02 23:53:00
8:48 PM,64.4,62.6,94,29.89,6.0,ENE,4.6,-,N/A,,Overcast,60,2012-10-03 00:48:00
8:53 PM,64.0,62.1,93,29.89,6.0,ENE,4.6,-,N/A,,Overcast,60,2012-10-03 00:53:00
9:53 PM,63.0,62.1,97,29.89,4.0,NNE,3.5,-,N/A,,Partly Cloudy,30,2012-10-03 01:53:00
10:07 PM,62.6,62.6,100,29.90,3.0,NE,4.6,-,N/A,,Mostly Cloudy,50,2012-10-03 02:07:00
10:37 PM,62.6,62.6,100,29.91,2.5,Calm,Calm,-,N/A,,Overcast,0,2012-10-03 02:37:00
10:53 PM,63.0,62.1,97,29.91,2.0,Calm,Calm,-,N/A,,Overcast,0,2012-10-03 02:53:00
11:02 PM,62.6,62.6,100,29.92,1.2,Calm,Calm,-,N/A,,Overcast,0,2012-10-03 03:02:00
11:09 PM,62.6,62.6,100,29.92,0.8,Calm,Calm,-,N/A,,Mist,0,2012-10-03 03:09:00
11:53 PM,62.1,61.0,96,29.91,0.2,East,3.5,-,N/A,Fog,Fog,90,2012-10-03 03:53:00